Location: Brahman Valley
(40.6513°N, 111.8855°W)
Time: 08:43:24
(UTC+00:00)

Tiros 1 despin weight - Pass Details

Date: 18 May 2021
Orbit: 594 x 641 km, 48.2° (Epoch: 22 June)

Event Time Altitude Azimuth Distance (km) Brightness Sun altitude
Rises 09:18:18 0° 283° (WNW) 2,940 - -24.1°
Reaches altitude 10° 09:21:54 10° 255° (WSW) 2,022 - -23.8°
Maximum altitude 09:23:53 13° 230° (SW) 1,846 - -23.6°
Drops below altitude 10° 09:25:52 10° 204° (SSW) 2,009 - -23.4°
Sets 09:29:26 0° 176° (S) 2,902 - -23.0°
